TimeEDT,TemperatureF,Dew PointF,Humidity,Sea Level PressureIn,VisibilityMPH,Wind Direction,Wind SpeedMPH,Gust SpeedMPH,PrecipitationIn,Events,Conditions,WindDirDegrees,DateUTC
12:15 AM,73.4,64.4,73,29.96,10.0,Calm,Calm,-,N/A,,Clear,0,2012-10-07 04:15:00
12:35 AM,73.4,64.4,73,29.95,10.0,Calm,Calm,-,N/A,,Clear,0,2012-10-07 04:35:00
12:55 AM,71.6,64.4,78,29.96,10.0,West,3.5,-,N/A,,Clear,270,2012-10-07 04:55:00
1:35 AM,71.6,66.2,83,29.95,10.0,Calm,Calm,-,N/A,,Clear,0,2012-10-07 05:35:00
1:55 AM,71.6,66.2,83,29.95,10.0,Calm,Calm,-,N/A,,Clear,0,2012-10-07 05:55:00
2:15 AM,71.6,66.2,83,29.95,10.0,Calm,Calm,-,N/A,,Scattered Clouds,0,2012-10-07 06:15:00
2:35 AM,71.6,66.2,83,29.96,10.0,Calm,Calm,-,N/A,,Clear,0,2012-10-07 06:35:00
2:55 AM,69.8,66.2,88,29.95,10.0,NE,4.6,-,N/A,,Clear,40,2012-10-07 06:55:00
3:15 AM,69.8,68.0,94,29.95,10.0,NE,5.8,-,N/A,,Clear,40,2012-10-07 07:15:00
3:35 AM,68.0,68.0,100,29.96,10.0,NNE,3.5,-,N/A,,Clear,30,2012-10-07 07:35:00
4:15 AM,68.0,68.0,100,29.95,10.0,NE,4.6,-,N/A,,Clear,40,2012-10-07 08:15:00
4:35 AM,68.0,68.0,100,29.95,10.0,Calm,Calm,-,N/A,,Clear,0,2012-10-07 08:35:00
4:55 AM,68.0,68.0,100,29.95,7.0,NE,3.5,-,N/A,,Clear,50,2012-10-07 08:55:00
5:15 AM,68.0,68.0,100,29.95,7.0,ENE,3.5,-,N/A,,Clear,60,2012-10-07 09:15:00
5:35 AM,66.2,66.2,100,29.96,7.0,NE,4.6,-,N/A,,Clear,40,2012-10-07 09:35:00
5:55 AM,66.2,66.2,100,29.95,5.0,NE,5.8,-,N/A,,Scattered Clouds,40,2012-10-07 09:55:00
6:15 AM,66.2,66.2,100,29.96,7.0,ENE,6.9,-,N/A,,Overcast,60,2012-10-07 10:15:00
6:35 AM,66.2,66.2,100,29.96,7.0,ENE,6.9,-,N/A,,Overcast,70,2012-10-07 10:35:00
6:55 AM,64.4,64.4,100,29.97,7.0,ENE,5.8,-,N/A,,Mostly Cloudy,70,2012-10-07 10:55:00
7:15 AM,64.4,64.4,100,29.97,7.0,East,4.6,-,N/A,Thunderstorm,Clear,80,2012-10-07 11:15:00
7:35 AM,64.4,64.4,100,29.98,10.0,Calm,Calm,-,N/A,,Clear,0,2012-10-07 11:35:00
8:15 AM,62.6,62.6,100,29.99,7.0,Calm,Calm,-,N/A,,Clear,0,2012-10-07 12:15:00
8:35 AM,62.6,62.6,100,30.01,5.0,North,3.5,-,N/A,,Scattered Clouds,350,2012-10-07 12:35:00
8:55 AM,64.4,64.4,100,30.02,10.0,North,5.8,-,N/A,,Overcast,360,2012-10-07 12:55:00
9:15 AM,62.6,62.6,100,30.03,10.0,North,10.4,16.1,N/A,,Overcast,10,2012-10-07 13:15:00
9:35 AM,62.6,60.8,94,30.03,10.0,NNE,8.1,-,N/A,,Overcast,20,2012-10-07 13:35:00
9:55 AM,62.6,60.8,94,30.03,10.0,NNE,5.8,-,N/A,,Overcast,30,2012-10-07 13:55:00
10:15 AM,62.6,60.8,94,30.03,10.0,NE,6.9,-,N/A,,Overcast,50,2012-10-07 14:15:00
10:35 AM,64.4,60.8,88,30.02,10.0,ENE,6.9,-,N/A,,Overcast,70,2012-10-07 14:35:00
10:55 AM,66.2,60.8,83,30.02,10.0,NE,5.8,-,N/A,,Overcast,50,2012-10-07 14:55:00
11:15 AM,68.0,62.6,83,30.02,10.0,Calm,Calm,-,N/A,,Overcast,0,2012-10-07 15:15:00
11:35 AM,69.8,62.6,78,30.02,10.0,Calm,Calm,-,N/A,,Scattered Clouds,0,2012-10-07 15:35:00
11:55 AM,69.8,62.6,78,30.03,10.0,Calm,Calm,-,N/A,,Clear,0,2012-10-07 15:55:00
12:15 PM,71.6,62.6,73,30.02,10.0,Calm,Calm,-,N/A,,Clear,0,2012-10-07 16:15:00
12:35 PM,71.6,62.6,73,30.02,10.0,North,3.5,-,N/A,,Clear,350,2012-10-07 16:35:00
12:55 PM,71.6,64.4,78,30.02,10.0,Calm,Calm,-,N/A,,Clear,0,2012-10-07 16:55:00
1:15 PM,73.4,64.4,73,30.01,10.0,Calm,Calm,-,N/A,,Clear,0,2012-10-07 17:15:00
1:35 PM,73.4,64.4,73,30.00,10.0,Calm,Calm,-,N/A,,Clear,0,2012-10-07 17:35:00
1:55 PM,75.2,64.4,69,30.00,10.0,Calm,Calm,-,N/A,,Clear,0,2012-10-07 17:55:00
2:35 PM,75.2,64.4,69,30.00,10.0,WNW,8.1,-,N/A,,Scattered Clouds,300,2012-10-07 18:35:00
2:55 PM,77.0,66.2,69,29.99,10.0,NW,3.5,-,N/A,,Scattered Clouds,310,2012-10-07 18:55:00
3:15 PM,77.0,64.4,65,29.98,10.0,West,5.8,-,N/A,,Scattered Clouds,270,2012-10-07 19:15:00
3:35 PM,75.2,66.2,73,29.98,10.0,NNW,6.9,-,N/A,,Mostly Cloudy,330,2012-10-07 19:35:00
3:55 PM,73.4,64.4,73,29.98,10.0,NNW,8.1,-,N/A,,Scattered Clouds,330,2012-10-07 19:55:00
4:35 PM,75.2,64.4,69,29.99,10.0,North,5.8,-,N/A,,Scattered Clouds,350,2012-10-07 20:35:00
4:55 PM,75.2,64.4,69,29.98,10.0,North,6.9,-,N/A,,Clear,10,2012-10-07 20:55:00
5:15 PM,75.2,64.4,69,29.99,10.0,North,3.5,-,N/A,,Scattered Clouds,10,2012-10-07 21:15:00
5:35 PM,75.2,64.4,69,29.99,10.0,North,8.1,-,N/A,,Scattered Clouds,350,2012-10-07 21:35:00
5:55 PM,73.4,64.4,73,30.00,10.0,North,3.5,-,N/A,,Mostly Cloudy,350,2012-10-07 21:55:00
6:15 PM,71.6,64.4,78,30.00,10.0,North,8.1,-,N/A,,Scattered Clouds,350,2012-10-07 22:15:00
6:35 PM,69.8,64.4,83,30.02,10.0,North,8.1,-,N/A,,Scattered Clouds,10,2012-10-07 22:35:00
6:55 PM,68.0,62.6,83,30.03,10.0,NNE,5.8,-,N/A,,Scattered Clouds,20,2012-10-07 22:55:00
7:15 PM,68.0,62.6,83,30.04,10.0,North,5.8,-,N/A,,Mostly Cloudy,360,2012-10-07 23:15:00
7:35 PM,64.4,60.8,88,30.04,10.0,North,8.1,-,N/A,,Overcast,360,2012-10-07 23:35:00
7:55 PM,64.4,60.8,88,30.05,10.0,North,8.1,16.1,N/A,,Mostly Cloudy,360,2012-10-07 23:55:00
8:15 PM,64.4,60.8,88,30.06,10.0,North,6.9,-,N/A,,Overcast,10,2012-10-08 00:15:00
8:35 PM,62.6,59.0,88,30.06,10.0,NNE,6.9,16.1,N/A,,Overcast,20,2012-10-08 00:35:00
8:55 PM,60.8,59.0,94,30.07,10.0,North,9.2,16.1,N/A,,Overcast,10,2012-10-08 00:55:00
9:15 PM,60.8,59.0,94,30.08,10.0,NNE,5.8,-,N/A,,Mostly Cloudy,30,2012-10-08 01:15:00
9:35 PM,60.8,59.0,94,30.08,10.0,NNE,4.6,-,N/A,,Clear,20,2012-10-08 01:35:00
9:55 PM,60.8,57.2,88,30.09,10.0,NNE,5.8,-,N/A,,Clear,30,2012-10-08 01:55:00
10:15 PM,59.0,57.2,94,30.10,10.0,NE,5.8,-,N/A,,Clear,40,2012-10-08 02:15:00
10:35 PM,59.0,55.4,88,30.09,10.0,NNE,9.2,-,N/A,,Clear,30,2012-10-08 02:35:00
10:55 PM,59.0,55.4,88,30.10,10.0,NNE,6.9,-,N/A,,Scattered Clouds,20,2012-10-08 02:55:00
11:15 PM,59.0,55.4,88,30.10,10.0,NE,10.4,-,N/A,,Mostly Cloudy,40,2012-10-08 03:15:00
11:35 PM,59.0,55.4,88,30.10,10.0,NNE,9.2,-,N/A,,Overcast,30,2012-10-08 03:35:00